Temp
101 102 102 102 100 99 96 94 94 92 94 93 94 95 96 98 97 97 99 98 96 100 97 100 99 98 97 94 93 95 85 84 87 94 94 99 95 99 96 95 90 89 88
100 100 100 100 100 98 96 94 94 92 92 95 95 98 98 100 101 99 96 98 98 98 98 96 98 98 98 94 93 92 92 93 94 90 91 89 96 98 96 93 91 90 88
99 99 98 99 100 98 96 95 93 94 92 94 96 95 96 95 96 97 98 97 98 98 98 97 96 95 95 97 95 94 91 85 91 92 88 84 83 89 94 91 92 88 87
101 100 99 98 100 100 100 97 95 93 94 93 94 92 93 93 97 98 101 95 98 98 99 97 96 95 97 91 97 94 92 90 85 84 86 89 90 84 83 93 86 89 85
101 101 101 100 102 102 102 101 96 94 93 92 91 94 90 96 97 98 97 96 97 98 99 99 97 95 97 97 95 92 91 93 93 93 92 82 93 87 86 82 88 91 84
102 102 102 102 102 104 104 103 97 92 92 93 91 91 92 91 95 96 97 97 100 100 96 99 97 96 96 95 96 93 92 91 91 92 91 91 91 90 88 85 86 86 84
103 102 101 101 101 102 103 103 98 91 92 92 92 91 91 91 90 92 95 95 99 101 100 97 95 97 96 95 94 93 92 91 91 89 91 94 92 94 92 88 86 85 83
103 102 102 103 102 103 103 102 99 93 92 92 91 92 91 93 94 93 96 98 99 101 100 98 97 95 95 96 95 95 95 94 93 90 89 91 92 93 92 87 84 82 83
102 102 104 103 104 103 103 103 100 96 94 93 92 91 91 91 95 95 95 97 95 99 97 96 95 95 95 95 94 95 92 94 92 91 91 84 92 95 91 90 86 79 78
103 104 104 104 105 106 106 105 103 98 96 96 95 94 93 92 92 92 93 94 96 96 95 94 94 94 94 94 93 93 94 91 92 94 92 90 92 93 92 90 88 82 78
104 105 106 107 108 109 108 106 105 101 98 97 98 96 95 94 93 92 93 93 93 93 92 92 91 91 92 92 91 91 90 89 90 91 90 87 87 90 90 91 87 86 83
103 106 105 106 107 107 106 105 103 102 99 97 96 96 95 94 94 93 93 93 92 93 92 91 90 90 91 91 90 89 91 90 90 90 89 89 90 86 87 88 83 83 80
98 100 101 99 100 99 98 97 97 99 98 95 93 92 91 89 88 89 90 91 91 91 93 92 91 90 90 90 90 89 89 89 90 90 90 90 89 85 88 86 84 83 82
90 89 85 83 87 88 90 92 95 95 93 92 92 90 91 89 90 89 89 90 90 91 92 91 91 90 90 90 90 90 90 89 90 90 91 91 89 84 85 84 82 81 81
84 84 83 83 83 83 83 85 87 87 87 85 87 86 87 87 87 87 87 86 84 89 89 91 91 92 92 94 92 91 90 89 89 91 91 89 89 78 78 87 82 81 79
82 82 83 83 83 83 84 84 84 85 87 85 84 84 83 83 83 82 82 85 86 87 87 88 90 91 95 72 74 77 89 89 89 89 90 89 77 73 72 73 72 77 79
82 82 82 82 81 82 83 82 81 82 80 76 82 83 83 82 83 84 84 84 84 85 85 86 87 87 88 67 67 69 85 87 87 88 89 90 87 78 78 69 69 70 71
82 81 82 80 79 79 76 80 78 80 82 82 80 82 82 83 83 83 83 83 84 83 83 84 85 85 86 70 62 65 82 85 87 87 88 88 86 79 82 78 75 77 77
83 83 83 82 82 82 81 81 80 79 80 81 80 80 80 79 79 80 80 82 82 82 82 84 84 83 82 70 62 69 80 84 85 88 89 89 86 73 66 79 76 78 80
84 83 84 85 84 81 83 81 81 80 79 79 78 78 76 76 75 75 75 78 79 80 84 83 83 78 81 71 60 68 82 81 84 86 89 71 80 64 63 77 75 77 79
83 84 84 83 81 82 81 78 80 79 80 80 79 78 77 74 75 76 77 78 76 78 78 77 80 80 79 79 62 59 78 80 83 82 82 79 62 60 60 63 77 78 81
82 83 83 81 81 81 79 76 76 78 78 77 76 76 76 77 78 75 76 76 76 75 75 76 78 83 80 70 67 57 60 67 72 73 78 70 57 56 57 61 62 62 69
81 82 81 79 79 79 78 74 75 76 75 74 73 73 74 75 75 74 74 75 75 77 77 81 82 84 88 88 62 56 56 58 68 75 69 61 56 53 57 58 58 59 74
78 79 78 76 76 78 77 76 76 75 73 72 72 73 73 73 75 77 78 77 78 79 80 81 82 84 86 87 89 83 74 62 68 67 73 67 62 59 64 62 62 74 78
76 77 75 75 74 76 75 76 76 74 72 71 72 72 75 76 76 77 80 79 78 77 79 80 82 81 82 81 62 66 80 80 69 68 75 68 65 63 64 66 70 71 77
75 74 74 74 75 75 74 74 75 73 71 71 73 74 73 74 74 75 77 69 62 59 58 56 62 78 65 52 50 48 48 47 49 72 73 65 65 63 64 64 66 72 70
MSLP
1005.99 1006.97 1007.82 1008.56 1009.43 1010.28 1011.20 1011.87 1012.38 1012.89 1013.31 1013.54 1013.42 1013.31 1013.08 1013.03 1013.07 1013.02 1013.11 1013.50 1013.60 1013.17 1013.60 1013.06 1013.18 1013.33 1013.15 1013.58 1013.97 1013.56 1013.44 1013.26 1013.10 1012.30 1011.80 1010.48 1010.88 1010.84 1011.58 1012.12 1012.61 1012.77 1012.78
1005.21 1006.33 1007.41 1008.15 1008.95 1009.84 1010.67 1011.48 1011.96 1012.60 1013.16 1012.99 1012.97 1012.66 1012.62 1012.47 1012.44 1012.54 1012.83 1013.27 1013.30 1013.12 1013.07 1013.39 1013.03 1013.08 1013.11 1013.32 1013.67 1013.77 1013.60 1013.32 1013.20 1012.78 1012.15 1011.07 1010.41 1010.69 1010.93 1011.80 1012.23 1012.63 1012.81
1004.46 1005.74 1006.83 1007.72 1008.49 1009.17 1010.12 1010.82 1011.57 1012.01 1012.65 1012.71 1012.79 1012.95 1013.09 1013.16 1012.97 1012.75 1012.90 1012.99 1012.98 1013.02 1013.11 1013.22 1013.36 1013.38 1013.38 1012.22 1013.04 1013.24 1013.57 1013.70 1013.28 1012.96 1012.87 1012.09 1011.62 1011.35 1011.25 1011.53 1011.86 1012.57 1012.92
1004.00 1005.09 1006.15 1007.11 1007.78 1008.47 1009.30 1010.12 1010.96 1011.59 1012.09 1012.56 1012.23 1012.47 1012.41 1012.33 1012.13 1012.23 1011.77 1012.61 1012.60 1012.80 1012.75 1013.03 1013.12 1013.25 1012.84 1012.78 1012.61 1012.85 1013.35 1013.32 1013.29 1012.55 1012.87 1012.45 1012.03 1011.95 1011.57 1011.10 1011.73 1012.09 1012.78
1003.30 1004.27 1005.43 1006.40 1007.04 1007.74 1008.33 1009.08 1010.21 1011.04 1011.54 1012.05 1012.30 1012.19 1012.64 1012.16 1012.37 1012.24 1012.04 1012.48 1012.52 1012.60 1012.48 1012.36 1012.68 1012.95 1012.93 1012.52 1012.87 1013.21 1013.24 1013.07 1012.48 1012.28 1012.18 1012.16 1011.30 1011.94 1011.71 1011.45 1011.16 1011.44 1012.68
1002.69 1003.72 1004.79 1005.75 1006.46 1007.00 1007.56 1008.09 1009.37 1010.47 1011.15 1011.49 1012.02 1012.07 1012.03 1012.32 1011.94 1011.95 1011.84 1012.04 1011.72 1011.60 1012.14 1012.12 1012.44 1012.65 1012.76 1012.77 1012.71 1012.98 1012.97 1012.94 1012.87 1012.62 1012.34 1011.81 1011.25 1011.13 1011.35 1011.44 1011.29 1011.54 1012.48
1002.24 1003.25 1004.11 1004.96 1005.74 1006.25 1006.93 1007.59 1008.83 1009.96 1010.61 1011.11 1011.50 1011.91 1012.13 1012.36 1012.39 1012.35 1012.04 1011.82 1011.34 1010.98 1011.24 1011.86 1012.44 1012.44 1012.36 1012.58 1012.72 1012.68 1012.72 1012.55 1012.38 1012.53 1012.25 1011.73 1011.30 1010.91 1011.13 1011.45 1011.59 1011.52 1012.41
1001.92 1002.83 1003.60 1004.38 1005.13 1005.74 1006.37 1007.15 1008.09 1009.30 1010.02 1010.52 1010.95 1011.42 1011.90 1012.09 1012.17 1012.19 1011.92 1011.57 1011.37 1011.20 1011.33 1011.81 1012.22 1012.46 1012.46 1012.42 1012.39 1012.35 1012.06 1011.86 1011.97 1012.13 1012.29 1012.13 1011.67 1011.28 1011.50 1011.85 1012.13 1011.79 1011.92
1001.61 1002.43 1003.03 1003.83 1004.44 1005.19 1005.92 1006.63 1007.43 1008.64 1009.34 1009.87 1010.53 1011.07 1011.50 1011.75 1011.34 1011.53 1011.63 1011.65 1011.75 1011.52 1011.57 1011.79 1012.06 1012.23 1012.20 1012.24 1012.16 1011.92 1011.78 1011.67 1011.78 1011.82 1011.86 1012.45 1011.81 1010.99 1011.72 1011.91 1012.31 1012.53 1012.35
1001.49 1002.06 1002.51 1003.15 1003.89 1004.57 1005.25 1006.14 1006.94 1007.97 1008.81 1009.37 1009.99 1010.47 1010.90 1011.30 1011.46 1011.57 1011.54 1011.47 1011.43 1011.50 1011.59 1011.82 1011.88 1011.90 1011.93 1011.95 1011.92 1011.64 1011.30 1011.34 1011.51 1011.49 1011.41 1011.70 1011.43 1011.25 1011.41 1011.50 1011.71 1012.38 1012.62
1001.16 1001.68 1002.13 1002.82 1003.39 1003.80 1004.57 1005.49 1006.38 1007.29 1008.31 1008.77 1009.07 1009.70 1010.24 1010.73 1011.13 1011.34 1011.37 1011.43 1011.48 1011.48 1011.58 1011.65 1011.74 1011.74 1011.72 1011.73 1011.62 1011.52 1011.32 1011.24 1011.23 1011.33 1011.42 1011.50 1011.80 1011.38 1011.20 1011.15 1011.89 1011.86 1012.09
1001.69 1001.73 1002.58 1003.36 1003.70 1004.11 1004.58 1005.47 1006.19 1006.85 1007.85 1008.50 1008.97 1009.26 1009.78 1010.27 1010.40 1010.74 1011.00 1011.21 1011.24 1011.29 1011.33 1011.42 1011.41 1011.41 1011.39 1011.35 1011.16 1011.09 1010.89 1010.76 1010.74 1010.82 1011.02 1010.88 1011.17 1011.15 1011.34 1011.32 1011.79 1011.86 1012.38
1003.52 1003.73 1004.14 1004.65 1005.03 1005.86 1006.49 1006.94 1007.48 1007.65 1008.21 1008.86 1009.46 1009.90 1010.35 1010.83 1011.09 1011.15 1011.16 1011.23 1011.15 1011.10 1010.95 1010.82 1010.91 1010.97 1011.03 1010.92 1010.86 1010.74 1010.61 1010.65 1010.64 1010.46 1010.38 1010.25 1010.54 1010.88 1010.87 1011.22 1011.49 1011.83 1012.25
1005.81 1006.55 1007.37 1008.20 1008.35 1008.47 1008.39 1008.21 1008.27 1008.68 1009.14 1009.49 1009.85 1010.23 1010.46 1010.70 1010.82 1011.09 1011.14 1011.12 1011.13 1010.93 1010.67 1010.45 1010.54 1010.52 1010.62 1010.57 1010.49 1010.38 1010.26 1010.23 1010.19 1010.18 1010.10 1009.87 1010.04 1010.65 1010.77 1011.26 1011.70 1011.67 1011.84
1007.83 1008.59 1009.21 1009.84 1010.31 1010.57 1010.57 1010.65 1010.68 1010.55 1010.53 1010.82 1011.03 1011.30 1011.32 1011.69 1011.78 1011.53 1011.25 1011.35 1011.26 1010.91 1010.79 1010.38 1010.17 1010.09 1010.04 1009.88 1009.73 1009.85 1009.87 1009.70 1009.63 1009.57 1009.59 1009.57 1009.58 1010.22 1010.67 1010.79 1011.81 1011.86 1011.93
1008.93 1009.67 1010.22 1010.61 1011.01 1011.26 1011.41 1011.61 1011.79 1011.82 1012.25 1011.56 1011.57 1012.45 1013.27 1012.31 1012.33 1012.83 1012.51 1011.50 1011.24 1011.26 1011.22 1010.76 1010.38 1009.89 1009.55 1009.95 1010.04 1010.11 1009.74 1009.40 1009.25 1008.96 1009.09 1009.13 1009.42 1010.00 1010.65 1010.94 1011.27 1011.45 1011.86
1009.55 1010.28 1010.82 1011.34 1011.80 1012.07 1012.42 1012.62 1012.58 1013.04 1012.59 1013.73 1012.10 1012.19 1012.84 1012.96 1012.25 1012.49 1012.49 1011.81 1011.41 1011.32 1011.23 1011.07 1010.65 1010.42 1010.37 1010.36 1010.51 1010.42 1010.10 1009.51 1009.10 1008.80 1008.49 1008.42 1008.74 1009.72 1010.37 1011.15 1011.28 1011.57 1011.41
1010.02 1010.83 1011.33 1012.09 1012.76 1012.96 1013.25 1013.20 1013.65 1013.21 1012.46 1013.93 1013.77 1012.82 1012.06 1012.78 1012.34 1012.26 1012.42 1012.24 1012.02 1011.53 1011.33 1010.94 1010.58 1010.64 1010.52 1010.43 1010.57 1010.42 1009.96 1009.27 1008.74 1008.50 1008.16 1007.96 1008.60 1009.59 1009.89 1010.70 1011.06 1010.99 1011.42
1010.65 1011.11 1011.68 1012.13 1012.53 1012.93 1013.39 1013.34 1013.31 1012.99 1012.54 1014.25 1014.02 1013.31 1012.84 1013.09 1012.67 1012.04 1011.92 1011.90 1011.94 1011.77 1011.35 1010.81 1010.33 1010.33 1010.29 1010.32 1010.22 1010.17 1009.74 1008.82 1008.33 1007.69 1007.50 1007.48 1007.92 1008.89 1009.70 1009.98 1010.52 1010.52 1010.67
1011.07 1011.39 1011.79 1012.01 1012.51 1013.10 1013.12 1013.34 1013.23 1013.48 1013.88 1014.00 1013.62 1013.29 1013.35 1013.27 1012.89 1012.44 1012.10 1011.92 1011.94 1011.70 1010.88 1010.28 1010.07 1010.05 1009.85 1009.72 1009.63 1009.70 1009.34 1008.77 1008.11 1007.51 1006.82 1007.04 1007.42 1008.24 1009.33 1009.46 1009.94 1009.89 1010.05
1011.31 1011.59 1011.88 1012.06 1012.70 1013.10 1013.34 1013.47 1013.36 1013.40 1013.45 1013.34 1013.30 1013.32 1013.26 1013.17 1012.82 1012.00 1011.67 1011.40 1011.37 1011.21 1010.68 1010.19 1009.79 1009.55 1009.28 1008.99 1008.88 1009.03 1009.11 1008.80 1008.09 1007.82 1007.52 1007.65 1007.52 1007.88 1008.36 1009.23 1009.20 1009.21 1009.62
1011.53 1011.79 1012.04 1012.39 1012.85 1013.18 1013.35 1013.41 1013.42 1013.41 1013.44 1013.43 1013.34 1013.14 1012.92 1012.54 1011.89 1011.68 1011.40 1011.28 1011.14 1010.67 1010.02 1009.47 1008.94 1008.26 1007.96 1007.80 1007.84 1008.12 1008.47 1008.80 1008.78 1008.35 1008.04 1008.30 1008.05 1007.72 1008.17 1008.81 1009.07 1009.39 1009.44
1012.04 1012.19 1012.27 1012.55 1012.89 1013.09 1013.25 1013.24 1013.25 1013.34 1013.32 1013.19 1012.97 1012.68 1012.41 1012.08 1011.82 1011.53 1011.26 1010.94 1010.41 1009.78 1009.04 1008.32 1007.54 1006.89 1006.45 1006.37 1006.68 1007.47 1007.85 1008.47 1008.57 1008.20 1008.17 1008.46 1008.20 1008.17 1008.62 1008.79 1009.41 1009.16 1009.26
1012.41 1012.57 1012.66 1012.74 1012.92 1013.10 1013.27 1013.29 1013.22 1013.22 1013.12 1012.92 1012.73 1012.46 1012.05 1011.58 1011.20 1010.82 1010.24 1009.68 1009.16 1008.62 1008.10 1007.44 1006.81 1006.39 1006.09 1005.94 1005.86 1006.45 1007.43 1007.63 1007.97 1007.84 1007.88 1008.08 1008.21 1008.32 1008.36 1008.85 1009.13 1009.12 1008.58
1012.84 1012.87 1012.92 1012.95 1013.00 1013.11 1013.13 1013.07 1013.09 1013.12 1012.99 1012.72 1012.39 1011.95 1011.33 1010.70 1010.04 1009.51 1008.88 1008.51 1008.24 1008.20 1007.99 1007.49 1006.93 1006.33 1005.94 1006.28 1007.00 1007.37 1006.99 1006.98 1007.41 1007.66 1007.38 1007.73 1008.02 1008.17 1008.20 1008.29 1008.26 1008.58 1008.22
1013.14 1013.15 1013.11 1013.09 1013.09 1013.17 1013.14 1013.06 1013.03 1013.02 1012.87 1012.47 1011.92 1011.38 1011.15 1010.58 1009.97 1009.38 1008.38 1007.84 1007.56 1007.50 1007.54 1007.51 1007.66 1007.12 1006.88 1007.16 1007.61 1007.92 1008.04 1008.09 1007.92 1007.37 1007.10 1007.26 1007.34 1007.46 1007.41 1007.51 1007.40 1007.58 1007.25
Wind_Speed
17 17 15 15 15 14 12 11 10 10 8 8 7 7 8 7 6 5 4 2 6 4 3 9 5 7 4 5 4 6 4 2 3 7 9 6 3 3 5 7 3 3 2
17 18 17 16 15 15 13 13 11 11 10 8 7 5 4 5 4 4 7 6 5 6 6 3 2 2 6 6 4 5 6 7 7 6 8 7 2 9 5 5 1 7 5
17 18 18 17 16 15 14 13 13 12 11 11 7 6 4 4 4 6 6 8 8 7 4 3 5 4 6 5 4 3 5 3 8 3 4 5 7 9 1 3 3 3 3
16 19 18 18 17 15 15 14 14 13 12 11 9 7 6 7 7 6 5 9 7 6 5 5 5 6 9 5 4 2 4 5 6 1 5 5 2 3 7 5 7 7 6
17 19 19 18 17 16 15 15 14 13 11 12 11 8 9 6 6 7 4 3 2 6 8 6 5 5 7 3 4 4 5 7 6 7 4 3 6 8 4 8 8 3 7
17 16 18 19 17 16 14 13 14 12 13 12 13 10 7 8 7 6 5 7 9 10 11 8 5 6 6 7 5 3 6 6 5 6 6 7 6 8 6 6 8 8 7
16 16 16 16 16 16 15 12 14 14 14 14 13 13 11 9 9 7 7 7 8 7 6 7 6 8 5 5 5 4 5 7 5 5 7 8 5 6 5 6 7 8 4
15 16 17 16 16 15 14 12 15 14 15 15 13 11 12 9 9 9 8 7 7 7 5 5 7 8 8 8 6 7 7 5 5 7 6 7 8 6 6 5 7 8 1
13 14 16 16 16 15 15 15 14 14 14 15 12 11 11 12 9 9 8 8 7 8 8 7 8 9 9 9 8 9 8 6 6 7 6 5 9 5 6 5 3 6 9
15 15 15 16 14 16 15 14 14 14 13 13 12 11 12 11 11 10 9 9 9 7 8 8 9 9 9 9 8 9 10 9 7 8 6 4 8 5 3 4 2 3 5
11 11 11 12 14 14 13 14 12 14 11 12 12 11 10 11 10 10 10 10 10 9 9 10 10 10 10 9 9 10 10 10 8 8 8 6 6 7 5 3 3 7 1
5 12 12 12 11 10 9 9 10 10 9 8 6 7 7 6 7 7 8 8 9 10 10 10 10 10 10 10 11 11 11 10 9 9 8 10 4 7 7 5 3 6 3
8 10 10 11 10 8 6 5 5 6 6 5 6 4 3 2 4 5 7 7 9 9 10 9 9 9 10 10 10 11 11 11 11 10 10 9 7 8 7 3 2 3 3
11 12 13 12 11 11 10 9 9 8 7 6 5 5 3 3 1 2 4 6 6 8 8 7 8 9 9 10 10 11 11 11 11 10 11 10 7 7 7 4 5 5 4
13 13 12 12 12 12 12 12 13 12 12 12 11 10 10 9 8 7 6 7 8 8 7 6 6 7 8 9 9 10 12 10 11 11 11 10 10 6 2 6 7 6 6
15 14 13 13 12 12 12 12 12 13 12 12 12 10 8 7 7 5 5 4 5 6 7 8 9 9 7 10 7 7 12 12 12 9 10 9 8 8 8 4 1 3 7
14 13 12 11 10 11 10 11 10 8 8 6 7 6 5 5 5 6 7 8 8 7 8 8 9 9 10 11 11 9 11 13 13 12 10 11 4 7 7 5 4 3 5
14 11 9 9 7 8 7 6 7 5 8 6 5 5 6 8 7 6 8 8 8 9 8 9 8 9 8 7 6 8 12 13 13 14 15 11 8 10 11 11 10 9 8
11 8 8 7 7 6 6 5 3 6 8 7 8 9 8 8 10 9 9 9 9 9 9 10 8 9 9 8 5 6 11 12 13 12 12 12 10 12 12 9 11 11 10
8 7 6 4 6 4 5 5 5 4 5 7 9 9 8 10 11 9 8 10 10 12 11 10 9 12 11 11 6 5 8 11 11 12 12 6 9 13 12 9 9 11 11
7 4 3 4 4 4 6 7 7 8 8 10 10 10 9 9 11 11 9 9 9 11 11 12 11 13 13 13 9 9 7 9 10 9 8 9 10 16 17 13 9 10 9
4 2 2 4 4 5 6 8 9 9 10 11 11 12 12 11 11 12 11 12 12 13 13 13 13 12 12 14 12 13 11 3 7 9 7 4 5 13 14 11 10 6 10
2 5 5 6 6 7 8 10 11 11 12 13 13 14 14 14 13 13 13 13 13 14 14 13 13 12 10 9 8 13 12 10 4 6 6 7 8 9 7 11 6 9 8
5 6 7 8 8 8 9 10 11 12 13 14 14 13 13 13 13 13 13 13 13 13 13 12 12 12 11 10 9 9 8 9 8 6 6 7 5 6 7 5 5 11 11
5 6 8 9 10 10 11 11 12 13 14 15 15 15 15 16 14 14 13 13 13 13 13 13 13 13 12 6 7 5 8 8 6 6 5 3 3 4 6 7 11 9 11
8 8 9 10 11 12 13 13 12 12 14 14 13 12 14 14 14 15 15 14 16 16 18 18 15 14 15 4 6 3 5 7 6 6 6 5 5 6 7 8 9 12 11
Wind_Direction
179 174 187 173 169 170 177 179 190 170 191 193 203 202 222 209 208 220 190 328 276 261 188 269 162 214 228 32 305 305 332 330 327 325 326 331 121 186 149 68 106 1 130
178 177 182 178 182 177 181 186 198 192 202 207 215 249 220 230 244 204 163 202 269 260 218 293 322 43 316 191 232 294 307 340 340 343 324 337 336 2 95 120 13 38 354
181 180 180 185 187 186 188 193 198 201 204 237 202 197 250 269 252 222 221 199 212 249 220 210 280 315 257 275 181 267 289 307 311 25 308 345 345 323 193 150 126 88 39
184 175 183 187 194 191 192 195 199 204 201 209 234 207 222 225 212 230 219 163 192 219 227 223 248 260 301 317 276 118 332 267 263 337 210 242 300 330 328 328 135 145 96
181 180 186 188 196 194 193 192 190 202 218 192 237 188 229 227 240 243 259 215 275 214 245 230 244 268 251 273 334 308 317 298 313 313 330 311 297 176 274 324 315 56 110
176 181 180 182 197 198 198 187 176 191 199 202 205 231 213 240 263 216 241 226 230 199 207 229 251 265 279 263 271 354 261 260 307 303 295 274 313 327 334 312 312 315 87
175 177 179 185 192 195 196 189 175 191 197 202 205 211 217 224 250 255 237 258 259 251 204 188 236 258 239 259 280 259 282 258 269 297 299 288 314 304 335 315 315 305 89
172 179 182 185 186 195 191 195 174 187 194 199 205 206 211 219 222 232 259 250 243 248 260 261 257 259 263 264 253 243 257 291 270 278 277 294 295 354 338 343 310 315 54
164 179 183 187 186 189 188 195 183 189 195 199 199 207 210 226 238 248 217 229 244 270 244 247 262 263 257 257 266 263 260 255 259 260 249 243 277 326 4 310 347 300 305
176 183 189 181 179 186 187 189 185 186 198 202 201 206 214 219 229 242 251 268 283 280 285 284 275 261 259 256 254 261 259 237 244 270 303 305 286 342 280 281 285 249 263
198 170 181 176 192 181 181 181 182 172 187 206 198 207 212 222 225 240 245 246 251 252 256 257 258 260 260 257 258 263 276 282 283 273 272 257 270 275 302 290 275 259 159
198 150 162 167 188 169 172 168 178 173 179 181 216 207 209 236 237 228 253 265 263 260 254 256 258 258 257 256 253 253 267 270 256 249 263 268 265 240 242 251 247 332 25
90 84 77 62 74 90 101 116 170 156 150 142 160 181 199 234 266 260 256 268 268 267 264 261 256 257 259 258 256 256 258 260 263 262 260 261 242 250 266 279 257 221 229
92 77 71 65 65 63 62 61 78 99 118 136 130 115 97 67 138 251 273 261 260 269 263 257 263 263 264 259 261 263 262 258 258 257 261 259 252 238 243 229 226 234 231
105 104 99 95 90 85 79 69 69 70 68 60 64 64 65 46 38 46 41 15 355 351 329 291 280 277 266 255 250 260 264 264 263 261 262 251 244 83 291 203 200 232 220
115 112 107 101 95 91 85 77 65 52 43 68 72 54 25 63 37 358 340 15 4 358 335 332 326 323 295 50 11 314 292 290 288 272 264 263 137 126 151 179 298 232 228
123 116 106 97 90 74 60 67 59 46 51 334 60 71 31 350 27 349 334 354 349 340 330 324 326 321 316 33 6 344 308 295 284 278 270 254 205 187 177 184 191 230 121
121 117 105 97 103 85 60 35 5 20 51 334 337 354 24 337 341 334 327 328 319 320 316 312 307 307 298 336 359 348 306 292 279 271 271 263 243 186 204 184 204 205 200
123 117 117 111 76 61 48 24 358 4 25 298 328 339 341 320 315 318 319 311 302 295 292 290 288 294 296 299 287 312 310 294 295 286 265 259 236 185 221 189 197 201 203
134 121 107 130 81 38 3 356 338 320 296 304 312 322 322 305 304 299 293 286 286 283 280 289 295 285 281 286 224 249 302 297 296 293 286 224 222 169 199 194 198 201 201
124 110 89 50 65 349 341 312 311 305 320 318 314 301 295 292 282 285 278 282 283 283 280 277 278 278 274 274 239 190 277 285 298 295 297 325 166 177 180 216 209 200 192
118 49 4 355 342 333 319 314 311 323 318 312 307 303 302 301 307 303 293 280 275 270 269 269 267 265 258 250 230 197 211 273 269 277 283 313 228 181 186 194 226 272 178
21 329 332 330 326 331 325 314 316 317 312 309 305 303 301 298 294 288 282 277 268 264 267 266 268 271 270 269 204 176 184 195 235 262 295 296 246 194 196 207 255 203 195
336 330 320 314 313 316 314 306 309 311 307 301 299 297 293 286 279 275 274 273 275 275 276 274 271 272 272 271 271 220 182 210 199 222 239 241 243 180 205 168 202 221 202
307 321 316 307 308 309 307 308 311 311 304 302 300 294 286 281 280 270 270 275 277 282 290 292 296 296 290 316 59 1 314 325 10 305 305 268 213 209 202 198 198 214 213
328 309 308 305 310 312 307 305 306 305 298 298 298 305 306 298 301 304 302 275 245 252 258 263 262 276 276 179 143 116 96 74 19 259 254 221 217 218 208 204 197 208 206